Regional Weather Roundup
Issued by NWS Jackson, KY

Home | Current Version | Previous Version | Text Only | Print | Product List | Glossary On
Versions: 1 2 3 4 5 6 7 8 9 10 11 12 13 14 15 16 17 18 19 20 21 22 23 24 25 26 27 28 29 30 31 32 33 34 35 36 37 38 39 40 41 42 43 44 45 46 47 48 49 50
000
ASUS43 KJKL 262019
RWRJKL

EAST KENTUCKY HOURLY WEATHER ROUNDUP
NATIONAL WEATHER SERVICE JACKSON KY
300 PM EST FRI DEC 26 2014

NOTE: "FAIR" INDICATES FEW OR NO CLOUDS BELOW 12,000 FEET WITH
NO SIGNIFICANT WEATHER AND/OR OBSTRUCTIONS TO VISIBILITY.

* THESE REPORTS ARE NOT UNDER NWS QUALITY CONTROL AND MAY NOT
  REPORT WEATHER SUCH AS PRECIPITATION AND FOG.

KYZ079-080-083-085-087-088-110-112-115-119-120-262100
...EASTERN KENTUCKY...

CITY           SKY/WX    TMP DP  RH WIND       PRES   REMARKS
JACKSON        SUNNY     54  29  38 S3        30.24S
LONDON         SUNNY     53  25  33 S10       30.25F
SOMERSET*      SUNNY     52  34  50 SW5       30.26S
MONTICELLO*    SUNNY     57  34  42 W7        30.27F
MIDDLESBORO*   SUNNY     52  33  47 S10       30.28R
HARLAN APT*    CLEAR     54  32  43 W5        30.25F
BLACK MTN*       N/A     46  23  39 S3          N/A
PIKEVILLE APT* SUNNY     52  32  46 S3        30.25S
BIG SANDY*     PTCLDY    52  32  46 SW5       30.25S
MOREHEAD APT*  CLEAR     52  34  50 VRB7G16   30.24S
ASHLAND*       SUNNY    N/A N/A N/A S8        30.21S
$$

KYZ035-036-041-042-044-050-067-078-099-262100
...CENTRAL KENTUCKY...

CITY           SKY/WX    TMP DP  RH WIND       PRES   REMARKS
MT STERLING*   MOSUNNY   52  34  50 SW10      30.24R
FLEMING/MASON* SUNNY     50  37  59 SW9       30.22F
DANVILLE*      SUNNY     52  34  50 SW12      30.22F
RICHMOND*      SUNNY     52  32  46 S12       30.22F
LEXINGTON      MOSUNNY   52  33  48 SW15      30.21F
FRANKFORT      MOSUNNY   53  34  48 S13       30.19F
$$

KYZ091>093-OHZ055-061-077-WVZ005-015-034-035-042-262100
...SOUTHERN OHIO/WEST VIRGINIA...

CITY           SKY/WX    TMP DP  RH WIND       PRES   REMARKS
COVINGTON      PTSUNNY   51  35  54 SW9       30.17F
COLUMBUS       PTSUNNY   47  36  65 SW10      30.18S
DAYTON         CLOUDY    50  38  63 S12       30.15F
WILMINGTON     CLOUDY    49  38  65 S13       30.17S
HUNTINGTON     MOSUNNY   50  34  54 S9        30.23F
CHARLESTON     PTSUNNY   52  31  44 S6        30.23F
PINEVILLE*     MOSUNNY   48  37  67 MISG      30.31R
BECKLEY        SUNNY     48  23  37 VRB7      30.24S
BLUEFIELD      MOSUNNY   54  19  25 N3        30.24S
$$

VAZ002-007-008-TNZ017-027-036-066-071-262100
...SOUTHWEST VIRGINIA/EAST TENNESSEE...

CITY           SKY/WX    TMP DP  RH WIND       PRES   REMARKS
WISE*          SUNNY     54  14  20 SW8       30.25S
JONESVILLE*    CLEAR     52  28  40 SW8       30.29S
ABINGDON*      SUNNY     56  21  25 W9        30.26R
BRISTOL        MOSUNNY   54  26  34 CALM      30.27S
KNOXVILLE      CLOUDY    49  34  56 NW5       30.29F
OAK RIDGE      CLOUDY    51  35  54 VRB3      30.30F
CROSSVILLE     MOSUNNY   50  34  54 S7        30.25F
NASHVILLE      PTSUNNY   54  38  54 SE10      30.22F
$$

...KEY TO REMARKS...
VSB - VISIBILITY IN MILES
WCI - WIND CHILL INDEX
HX  - HEAT INDEX

$$



USA.gov is the U.S. government's official web portal to all federal, state and local government web resources and services.